Total_Precipitation_Accumulation
0.01 0.00 0.01 0.02 0.02 0.02 0.02 0.03 0.05 0.07 0.08 0.08 0.08 0.07 0.07 0.09 0.10 0.08 0.07 0.07 0.11 0.19 0.25 0.26 0.26 0.29 0.29 0.27 0.22 0.16 0.12 0.08 0.07 0.06 0.06 0.07 0.10 0.13 0.14 0.11 0.09 0.08 0.03
0.01 0.01 0.01 0.02 0.02 0.02 0.02 0.04 0.06 0.06 0.07 0.07 0.07 0.06 0.07 0.07 0.09 0.10 0.09 0.10 0.15 0.20 0.21 0.23 0.25 0.24 0.22 0.18 0.14 0.09 0.06 0.04 0.04 0.05 0.07 0.13 0.25 0.26 0.24 0.20 0.17 0.14 0.03
0.01 0.00 0.01 0.02 0.03 0.02 0.02 0.04 0.06 0.07 0.07 0.07 0.08 0.07 0.08 0.08 0.09 0.11 0.11 0.13 0.18 0.20 0.17 0.17 0.18 0.17 0.13 0.08 0.04 0.03 0.03 0.03 0.04 0.07 0.18 0.36 0.48 0.36 0.25 0.21 0.20 0.14 0.04
0.01 0.00 0.00 0.01 0.02 0.01 0.01 0.02 0.04 0.05 0.07 0.09 0.10 0.09 0.09 0.09 0.09 0.09 0.11 0.13 0.15 0.15 0.13 0.12 0.11 0.09 0.05 0.02 0.02 0.01 0.02 0.03 0.06 0.15 0.34 0.51 0.70 0.56 0.33 0.24 0.23 0.20 0.15
0.01 0.01 0.00 0.01 0.02 0.01 0.01 0.02 0.04 0.06 0.06 0.08 0.11 0.12 0.10 0.07 0.07 0.09 0.13 0.17 0.19 0.18 0.19 0.18 0.14 0.08 0.04 0.03 0.02 0.02 0.02 0.04 0.08 0.21 0.49 0.76 0.90 0.75 0.44 0.28 0.28 0.29 0.29
0.01 0.00 0.01 0.02 0.02 0.01 0.01 0.01 0.04 0.07 0.07 0.08 0.09 0.11 0.11 0.08 0.07 0.12 0.20 0.23 0.23 0.22 0.26 0.31 0.25 0.16 0.08 0.04 0.03 0.02 0.03 0.04 0.09 0.26 0.68 0.97 0.91 0.67 0.41 0.28 0.24 0.30 0.36
0.01 0.00 0.01 0.02 0.02 0.02 0.01 0.02 0.05 0.07 0.09 0.11 0.10 0.11 0.12 0.08 0.06 0.12 0.22 0.27 0.27 0.26 0.26 0.23 0.17 0.13 0.10 0.06 0.05 0.03 0.02 0.04 0.11 0.30 0.65 0.92 0.76 0.48 0.31 0.24 0.20 0.22 0.25
0.01 0.00 0.00 0.01 0.02 0.03 0.03 0.05 0.07 0.06 0.07 0.09 0.09 0.11 0.11 0.07 0.05 0.10 0.19 0.27 0.33 0.29 0.21 0.16 0.12 0.09 0.08 0.06 0.05 0.03 0.04 0.05 0.09 0.24 0.48 0.58 0.48 0.30 0.20 0.17 0.16 0.14 0.14
0.05 0.04 0.03 0.01 0.01 0.03 0.03 0.03 0.04 0.04 0.04 0.05 0.05 0.07 0.09 0.08 0.06 0.10 0.17 0.23 0.22 0.15 0.12 0.11 0.09 0.07 0.04 0.03 0.02 0.03 0.04 0.06 0.08 0.15 0.28 0.38 0.35 0.20 0.12 0.09 0.09 0.09 0.08
0.30 0.53 0.33 0.07 0.02 0.01 0.01 0.01 0.02 0.01 0.01 0.01 0.01 0.03 0.05 0.06 0.08 0.11 0.14 0.13 0.09 0.05 0.03 0.03 0.03 0.02 0.02 0.01 0.01 0.01 0.02 0.02 0.04 0.09 0.16 0.23 0.22 0.14 0.10 0.07 0.05 0.04 0.05
0.52 0.73 0.33 0.11 0.03 0.01 0.00 0.00 0.01 0.01 0.01 0.01 0.02 0.03 0.05 0.12 0.16 0.17 0.11 0.09 0.05 0.02 0.01 0.01 0.01 0.01 0.01 0.00 0.00 0.00 0.00 0.00 0.02 0.07 0.10 0.16 0.19 0.14 0.10 0.08 0.06 0.04 0.04
0.36 0.29 0.17 0.08 0.02 0.01 0.01 0.01 0.01 0.01 0.01 0.02 0.04 0.05 0.11 0.21 0.25 0.19 0.11 0.07 0.03 0.02 0.01 0.01 0.01 0.01 0.00 0.00 0.01 0.00 0.01 0.01 0.03 0.04 0.03 0.05 0.10 0.10 0.10 0.10 0.06 0.04 0.04
0.35 0.13 0.07 0.06 0.04 0.02 0.00 0.01 0.01 0.01 0.02 0.02 0.04 0.06 0.12 0.14 0.11 0.09 0.09 0.06 0.05 0.03 0.03 0.03 0.02 0.01 0.01 0.01 0.01 0.02 0.02 0.02 0.03 0.03 0.03 0.06 0.08 0.10 0.10 0.09 0.07 0.05 0.05
0.24 0.13 0.07 0.07 0.05 0.03 0.01 0.01 0.02 0.02 0.02 0.03 0.04 0.04 0.09 0.11 0.10 0.09 0.10 0.11 0.13 0.10 0.09 0.08 0.06 0.03 0.02 0.02 0.03 0.03 0.02 0.02 0.02 0.03 0.05 0.09 0.10 0.11 0.13 0.12 0.09 0.07 0.07
0.20 0.13 0.11 0.10 0.05 0.03 0.01 0.01 0.01 0.01 0.02 0.03 0.04 0.04 0.05 0.07 0.08 0.08 0.08 0.09 0.10 0.13 0.16 0.14 0.13 0.07 0.04 0.03 0.03 0.04 0.04 0.03 0.03 0.07 0.08 0.08 0.08 0.10 0.14 0.14 0.12 0.10 0.10
0.18 0.14 0.14 0.10 0.03 0.02 0.01 0.01 0.01 0.01 0.04 0.05 0.05 0.04 0.04 0.05 0.08 0.10 0.12 0.13 0.10 0.10 0.12 0.13 0.14 0.10 0.06 0.04 0.05 0.06 0.07 0.05 0.05 0.09 0.11 0.11 0.11 0.12 0.16 0.18 0.18 0.17 0.15
0.23 0.20 0.19 0.08 0.03 0.02 0.01 0.01 0.02 0.03 0.06 0.07 0.07 0.07 0.07 0.07 0.10 0.12 0.16 0.19 0.17 0.14 0.13 0.14 0.14 0.15 0.13 0.10 0.11 0.11 0.10 0.10 0.11 0.12 0.11 0.14 0.16 0.18 0.22 0.21 0.19 0.17 0.16
0.34 0.45 0.38 0.14 0.06 0.05 0.04 0.04 0.06 0.08 0.09 0.10 0.13 0.15 0.16 0.16 0.16 0.20 0.26 0.29 0.32 0.29 0.28 0.30 0.28 0.25 0.24 0.21 0.19 0.18 0.17 0.16 0.16 0.15 0.14 0.13 0.12 0.13 0.14 0.15 0.15 0.16 0.16
0.57 0.90 0.67 0.22 0.10 0.09 0.09 0.11 0.15 0.18 0.23 0.26 0.29 0.28 0.26 0.27 0.31 0.39 0.48 0.53 0.55 0.54 0.52 0.47 0.47 0.43 0.41 0.38 0.30 0.25 0.21 0.19 0.19 0.16 0.13 0.13 0.12 0.11 0.10 0.10 0.12 0.13 0.13
1.04 1.46 0.98 0.41 0.23 0.18 0.20 0.25 0.33 0.41 0.50 0.59 0.57 0.52 0.50 0.53 0.61 0.71 0.78 0.85 0.83 0.79 0.74 0.70 0.64 0.55 0.47 0.41 0.32 0.25 0.21 0.18 0.16 0.13 0.10 0.08 0.07 0.07 0.06 0.05 0.06 0.07 0.11
1.02 1.18 0.88 0.57 0.44 0.40 0.48 0.58 0.72 0.84 0.94 1.00 1.00 1.02 1.09 1.15 1.18 1.17 1.13 1.11 1.02 0.94 0.86 0.74 0.64 0.56 0.50 0.41 0.32 0.23 0.14 0.10 0.08 0.08 0.06 0.05 0.04 0.04 0.03 0.02 0.02 0.02 0.04
0.83 0.80 0.78 0.74 0.76 0.71 0.82 1.02 1.27 1.50 1.59 1.68 1.76 1.90 2.01 1.95 1.78 1.63 1.47 1.26 1.11 1.00 0.91 0.81 0.70 0.60 0.48 0.36 0.29 0.24 0.15 0.09 0.05 0.03 0.03 0.03 0.02 0.02 0.02 0.02 0.02 0.02 0.02
0.78 0.80 0.83 0.91 1.04 1.03 1.22 1.48 1.79 2.10 2.32 2.46 2.48 2.49 2.39 2.19 2.03 1.87 1.60 1.37 1.25 1.13 1.03 0.92 0.75 0.61 0.46 0.31 0.22 0.20 0.17 0.10 0.05 0.03 0.02 0.01 0.01 0.01 0.01 0.01 0.01 0.01 0.01
0.71 0.85 0.93 1.04 1.23 1.48 1.72 1.96 2.32 2.67 2.87 2.87 2.65 2.46 2.22 1.98 1.79 1.60 1.46 1.35 1.25 1.13 1.00 0.81 0.61 0.46 0.34 0.24 0.16 0.12 0.10 0.07 0.06 0.04 0.01 0.01 0.01 0.01 0.01 0.01 0.01 0.01 0.01
0.69 0.81 0.99 1.18 1.40 1.80 2.26 2.62 2.92 3.08 2.98 2.72 2.46 2.14 1.93 1.72 1.52 1.32 1.18 1.08 0.97 0.82 0.65 0.49 0.36 0.29 0.22 0.17 0.12 0.09 0.07 0.05 0.05 0.06 0.04 0.02 0.01 0.01 0.01 0.01 0.01 0.01 0.01
0.59 0.77 0.98 1.24 1.52 1.90 2.31 2.67 2.83 2.87 2.78 2.53 2.16 1.81 1.59 1.38 1.16 0.97 0.77 0.63 0.51 0.39 0.29 0.22 0.17 0.14 0.13 0.11 0.08 0.07 0.06 0.06 0.06 0.07 0.07 0.04 0.02 0.01 0.01 0.01 0.01 0.01 0.01